Weather History for PATQ - February, 2014

Change the Weather History Date:

Friday, February 28, 2014

  Actual Average (PABR) Record (PABR)
Temperature  
Mean Temperature 7 °F -14 °F  
Max Temperature 16 °F -8 °F 32 °F (1960)
Min Temperature -2 °F -21 °F -50 °F (1957)
Degree Days  
Heating Degree Days 58 79  
Month to date heating degree days 2212  
Since 1 July heating degree days 12848  
Cooling Degree Days 0    
Month to date cooling degree days  
Year to date cooling degree days  
Moisture  
Dew Point 1 °F    
Average Humidity 85    
Maximum Humidity 92    
Minimum Humidity 78    
Precipitation  
Precipitation 0.00 in 0.00 in 0.11 in (1963)
Month to date precipitation 0.14  
Year to date precipitation 0.27  
Snow  
Snow 0.00 in 0.10 in 2.40 in (1935)
Month to date snowfall 2.6  
Since 1 July snowfall 29.0  
Snow Depth -    
Sea Level Pressure  
Sea Level Pressure 29.90 in    
Wind  
Wind Speed 23 mph (SE)    
Max Wind Speed 32 mph    
Max Gust Speed -    
Visibility 7 miles    
Events Snow    
T = Trace of Precipitation, MM = Missing Value Source: NWS Daily Summary

Daily Weather History Graph

Daily Weather History Graph

Search for Another Location

Airport or City:

Trip Planner

Search our weather history database for the weather conditions in past years. The results will help you decide how hot, cold, wet, or windy it might be!

Date:

Astronomy

Feb. 28, 2014 Rise Set
Actual Time 9:02 AM AKST 6:24 PM AKST
Civil Twilight 7:58 AM AKST 7:27 PM AKST
Nautical Twilight 6:46 AM AKST 8:40 PM AKST
Astronomical Twilight 5:30 AM AKST 9:57 PM AKST
Moon 8:24 AM AKST (2/28) 6:28 PM AKST (2/28)
Length of Visible Light 11h 29m
Length of Day
9h 21m
Waning Crescent, 0% of the Moon is Illuminated
Feb 28
Waning Crescent
Feb 28
New
Mar 8
First Quarter
Mar 16
Full
Mar 23
Last Quarter

Hourly Weather History & Observations

Time (AKST) Temp. Windchill Dew Point Humidity Pressure Visibility Wind Dir Wind Speed Gust Speed Precip Events Conditions
12:41 AM -2.2 °F -29.6 °F -5.8 °F 85% 29.88 in 3.0 mi East 32.2 mph - 0.00 in   Mostly Cloudy
12:49 AM -2.2 °F -29.2 °F -5.8 °F 85% 29.89 in 2.5 mi East 31.1 mph - 0.00 in   Mostly Cloudy
12:56 AM -1.8 °F -27.1 °F -6.0 °F 83% 29.93 in 2.5 mi East 26.5 mph - 0.00 in Snow Light Snow
1:09 AM -2.2 °F -28.0 °F -5.8 °F 85% 29.90 in 3.0 mi East 27.6 mph - 0.00 in   Mostly Cloudy
1:56 AM -1.8 °F -27.9 °F -6.0 °F 83% 29.91 in 2.5 mi East 28.8 mph - 0.00 in   Mostly Cloudy
2:25 AM -0.4 °F -24.3 °F -5.8 °F 78% 29.90 in 3.0 mi East 24.2 mph - N/A   Mostly Cloudy
2:37 AM -0.4 °F -24.7 °F -5.8 °F 78% 29.90 in 2.5 mi East 25.3 mph - N/A   Mostly Cloudy
2:56 AM -0.4 °F -24.7 °F -5.8 °F 78% 29.89 in 2.5 mi East 25.3 mph - N/A   Overcast
3:22 AM -0.4 °F -23.8 °F -5.8 °F 78% 29.89 in 3.0 mi East 23.0 mph - N/A   Overcast
3:37 AM -0.4 °F -22.8 °F -5.8 °F 78% 29.89 in 5.0 mi East 20.7 mph - N/A   Scattered Clouds
3:56 AM -0.9 °F -24.1 °F -4.9 °F 83% 29.91 in 5.0 mi East 21.9 mph - N/A   Partly Cloudy
4:56 AM -0.9 °F -25.5 °F -4.9 °F 83% 29.88 in 5.0 mi East 25.3 mph - N/A   Clear
5:56 AM -0.9 °F -24.1 °F -4.9 °F 83% 29.87 in 9.0 mi East 21.9 mph - N/A   Clear
6:56 AM -0.9 °F -24.1 °F -4.9 °F 83% 29.86 in 9.0 mi East 21.9 mph - N/A   Clear
7:56 AM -1.8 °F -24.2 °F -6.0 °F 83% 29.86 in 9.0 mi East 19.6 mph - 0.00 in Snow Light Snow
8:56 AM -0.9 °F -21.9 °F -4.9 °F 83% 29.86 in 10.0 mi East 17.3 mph - 0.00 in   Clear
9:56 AM -0.9 °F -22.4 °F -4.9 °F 83% 29.85 in 10.0 mi East 18.4 mph - N/A   Clear
10:56 AM 0.1 °F -21.0 °F -4.0 °F 83% 29.85 in 10.0 mi ESE 18.4 mph - N/A   Clear
11:56 AM 1.0 °F -18.7 °F -2.9 °F 83% 29.84 in 10.0 mi ESE 16.1 mph - N/A   Clear
12:56 PM 2.1 °F -15.2 °F -0.9 °F 87% 29.85 in 10.0 mi SE 12.7 mph - N/A   Clear
1:56 PM 7.2 °F -7.3 °F 3.0 °F 83% 29.85 in 10.0 mi SSE 10.4 mph - N/A   Clear
2:56 PM 16.2 °F 2.5 °F 14.0 °F 91% 29.85 in 10.0 mi WSW 12.7 mph - N/A   Clear
3:56 PM 16.2 °F 1.9 °F 14.0 °F 91% 29.89 in 10.0 mi WSW 13.8 mph - N/A   Clear
4:56 PM 14.0 °F 0.5 °F 12.0 °F 92% 29.92 in 10.0 mi WSW 11.5 mph - N/A   Clear
5:56 PM 14.0 °F 2.9 °F 12.0 °F 92% 29.93 in 10.0 mi WSW 8.1 mph - N/A   Clear
6:56 PM 16.2 °F 6.5 °F 14.0 °F 91% 29.94 in 10.0 mi South 6.9 mph - N/A   Clear
7:56 PM 15.1 °F 3.3 °F 13.1 °F 92% 29.96 in 10.0 mi South 9.2 mph - N/A   Clear
8:56 PM 13.1 °F -3.7 °F 11.1 °F 92% 29.96 in 10.0 mi South 17.3 mph - N/A   Clear
9:56 PM 15.1 °F -0.6 °F 13.1 °F 92% 29.96 in 10.0 mi South 16.1 mph - N/A   Clear
10:56 PM 16.2 °F 3.2 °F 14.0 °F 91% 29.97 in 10.0 mi South 11.5 mph - N/A   Clear
11:56 PM 14.0 °F -0.8 °F 11.1 °F 88% 29.97 in 10.0 mi South 13.8 mph - N/A   Clear